Time,TemperatureF,DewpointF,PressureIn,WindDirection,WindDirectionDegrees,WindSpeedMPH,WindSpeedGustMPH,Humidity,HourlyPrecipIn,Conditions,Clouds,dailyrainin,SoftwareType,DateUTC
2013-03-18 00:03:00,54.7,28.3,29.84,North,359,0.0,3.0,36,0.00,,---,0.00,VWS V14.01,2013-03-18 07:03:00,
2013-03-18 00:08:00,53.8,28.2,29.84,NE,49,3.0,3.0,37,0.00,,---,0.00,VWS V14.01,2013-03-18 07:08:00,
2013-03-18 00:13:00,54.0,27.7,29.84,NE,37,3.0,4.0,36,0.00,,---,0.00,VWS V14.01,2013-03-18 07:13:00,
2013-03-18 00:18:00,54.7,27.6,29.84,NE,36,2.0,4.0,35,0.00,,---,0.00,VWS V14.01,2013-03-18 07:18:00,
2013-03-18 00:24:00,55.0,27.9,29.84,NNE,30,3.0,4.0,35,0.00,,---,0.00,VWS V14.01,2013-03-18 07:24:00,
2013-03-18 00:29:00,55.7,27.1,29.84,NNE,30,3.0,5.0,33,0.00,,---,0.00,VWS V14.01,2013-03-18 07:29:00,
2013-03-18 00:34:00,56.2,26.8,29.84,NNE,22,2.0,2.0,32,0.00,,---,0.00,VWS V14.01,2013-03-18 07:34:00,
2013-03-18 00:39:00,56.5,27.0,29.84,NE,42,3.0,4.0,32,0.00,,---,0.00,VWS V14.01,2013-03-18 07:39:00,
2013-03-18 00:44:00,56.6,27.1,29.84,NNE,18,1.0,4.0,32,0.00,,---,0.00,VWS V14.01,2013-03-18 07:44:00,
2013-03-18 00:49:00,56.9,26.6,29.84,NNE,23,4.0,5.0,31,0.00,,---,0.00,VWS V14.01,2013-03-18 07:49:00,
2013-03-18 00:54:00,57.2,26.1,29.84,NNE,24,3.0,5.0,30,0.00,,---,0.00,VWS V14.01,2013-03-18 07:54:00,
2013-03-18 00:59:00,57.1,26.0,29.84,NNE,26,2.0,5.0,30,0.00,,---,0.00,VWS V14.01,2013-03-18 07:59:00,
2013-03-18 01:04:00,56.5,26.2,29.84,NE,34,2.0,4.0,31,0.00,,---,0.00,VWS V14.01,2013-03-18 08:04:00,
2013-03-18 01:09:00,56.3,26.1,29.84,North,11,2.0,5.0,31,0.00,,---,0.00,VWS V14.01,2013-03-18 08:09:00,
2013-03-18 01:14:00,56.1,25.9,29.85,NNE,16,3.0,5.0,31,0.00,,---,0.00,VWS V14.01,2013-03-18 08:14:00,
2013-03-18 01:19:00,56.0,26.6,29.84,NNE,18,3.0,5.0,32,0.00,,---,0.00,VWS V14.01,2013-03-18 08:19:00,
2013-03-18 01:24:00,55.7,26.3,29.85,NNE,30,3.0,5.0,32,0.00,,---,0.00,VWS V14.01,2013-03-18 08:24:00,
2013-03-18 01:29:00,56.0,25.8,29.85,NNE,22,3.0,5.0,31,0.00,,---,0.00,VWS V14.01,2013-03-18 08:29:00,
2013-03-18 01:34:00,55.9,25.7,29.85,NNE,12,2.0,3.0,31,0.00,,---,0.00,VWS V14.01,2013-03-18 08:34:00,
2013-03-18 01:40:00,56.5,26.2,29.85,NNE,30,2.0,4.0,31,0.00,,---,0.00,VWS V14.01,2013-03-18 08:40:00,
2013-03-18 01:45:00,56.1,25.9,29.85,NE,39,2.0,4.0,31,0.00,,---,0.00,VWS V14.01,2013-03-18 08:45:00,
2013-03-18 01:50:00,55.5,26.1,29.85,North,6,1.0,4.0,32,0.00,,---,0.00,VWS V14.01,2013-03-18 08:50:00,
2013-03-18 01:55:00,55.0,25.7,29.85,NNE,14,2.0,4.0,32,0.00,,---,0.00,VWS V14.01,2013-03-18 08:55:00,
2013-03-18 02:00:00,55.1,25.8,29.85,NE,34,2.0,4.0,32,0.00,,---,0.00,VWS V14.01,2013-03-18 09:00:00,
2013-03-18 02:05:00,55.3,26.0,29.85,NE,47,3.0,4.0,32,0.00,,---,0.00,VWS V14.01,2013-03-18 09:05:00,
2013-03-18 02:10:00,55.4,26.0,29.85,NNE,23,5.0,6.0,32,0.00,,---,0.00,VWS V14.01,2013-03-18 09:10:00,
2013-03-18 02:15:00,55.2,26.6,29.85,North,11,3.0,6.0,33,0.00,,---,0.00,VWS V14.01,2013-03-18 09:15:00,
2013-03-18 02:20:00,55.0,26.5,29.84,NNE,16,5.0,6.0,33,0.00,,---,0.00,VWS V14.01,2013-03-18 09:20:00,
2013-03-18 02:25:00,55.4,26.8,29.85,North,11,3.0,6.0,33,0.00,,---,0.00,VWS V14.01,2013-03-18 09:25:00,
2013-03-18 02:30:00,55.4,26.8,29.84,NNE,16,1.0,6.0,33,0.00,,---,0.00,VWS V14.01,2013-03-18 09:30:00,
2013-03-18 02:35:00,55.2,26.6,29.84,North,4,1.0,3.0,33,0.00,,---,0.00,VWS V14.01,2013-03-18 09:35:00,
2013-03-18 02:40:00,54.9,27.1,29.84,NNE,22,0.0,3.0,34,0.00,,---,0.00,VWS V14.01,2013-03-18 09:40:00,
2013-03-18 02:45:00,54.4,26.6,29.84,NNE,12,0.0,3.0,34,0.00,,---,0.00,VWS V14.01,2013-03-18 09:45:00,
2013-03-18 02:50:00,53.8,26.8,29.84,NNE,18,1.0,3.0,35,0.00,,---,0.00,VWS V14.01,2013-03-18 09:50:00,
2013-03-18 02:56:00,53.8,26.8,29.84,North,4,0.0,3.0,35,0.00,,---,0.00,VWS V14.01,2013-03-18 09:56:00,
2013-03-18 03:01:00,53.6,27.3,29.84,North,5,1.0,3.0,36,0.00,,---,0.00,VWS V14.01,2013-03-18 10:01:00,
2013-03-18 03:06:00,53.6,28.0,29.84,North,11,1.0,1.0,37,0.00,,---,0.00,VWS V14.01,2013-03-18 10:06:00,
2013-03-18 03:11:00,53.6,28.6,29.84,North,11,0.0,1.0,38,0.00,,---,0.00,VWS V14.01,2013-03-18 10:11:00,
2013-03-18 03:16:00,53.4,29.1,29.84,NNE,25,0.0,1.0,39,0.00,,---,0.00,VWS V14.01,2013-03-18 10:16:00,
2013-03-18 03:21:00,52.9,28.6,29.84,NNE,25,1.0,1.0,39,0.00,,---,0.00,VWS V14.01,2013-03-18 10:21:00,
2013-03-18 03:26:00,53.0,28.7,29.84,NNE,25,0.0,1.0,39,0.00,,---,0.00,VWS V14.01,2013-03-18 10:26:00,
2013-03-18 03:32:00,52.9,28.0,29.84,North,1,1.0,1.0,38,0.00,,---,0.00,VWS V14.01,2013-03-18 10:32:00,
2013-03-18 03:37:00,52.9,28.6,29.84,NNE,18,0.0,1.0,39,0.00,,---,0.00,VWS V14.01,2013-03-18 10:37:00,
2013-03-18 03:42:00,52.9,28.6,29.84,NNE,15,1.0,1.0,39,0.00,,---,0.00,VWS V14.01,2013-03-18 10:42:00,
2013-03-18 03:47:00,52.6,28.4,29.83,NNE,18,2.0,2.0,39,0.00,,---,0.00,VWS V14.01,2013-03-18 10:47:00,
2013-03-18 03:52:00,52.4,28.2,29.83,NNE,18,2.0,2.0,39,0.00,,---,0.00,VWS V14.01,2013-03-18 10:52:00,
2013-03-18 03:57:00,52.3,28.1,29.83,NE,34,0.0,2.0,39,0.00,,---,0.00,VWS V14.01,2013-03-18 10:57:00,
2013-03-18 04:02:00,52.3,28.1,29.83,ENE,68,2.0,2.0,39,0.00,,---,0.00,VWS V14.01,2013-03-18 11:02:00,
2013-03-18 04:07:00,51.4,28.5,29.84,NE,50,1.0,4.0,41,0.00,,---,0.00,VWS V14.01,2013-03-18 11:07:00,
2013-03-18 04:12:00,50.6,29.0,29.84,NE,50,2.0,4.0,43,0.00,,---,0.00,VWS V14.01,2013-03-18 11:12:00,
2013-03-18 04:17:00,50.1,29.0,29.84,NE,50,1.0,4.0,44,0.00,,---,0.00,VWS V14.01,2013-03-18 11:17:00,
2013-03-18 04:22:00,50.3,28.7,29.84,NNE,29,2.0,4.0,43,0.00,,---,0.00,VWS V14.01,2013-03-18 11:22:00,
2013-03-18 04:27:00,50.7,29.0,29.84,NNE,27,2.0,4.0,43,0.00,,---,0.00,VWS V14.01,2013-03-18 11:27:00,
2013-03-18 04:33:00,51.2,28.9,29.84,NE,34,2.0,4.0,42,0.00,,---,0.00,VWS V14.01,2013-03-18 11:33:00,
2013-03-18 04:38:00,51.6,28.7,29.84,NE,48,1.0,3.0,41,0.00,,---,0.00,VWS V14.01,2013-03-18 11:38:00,
2013-03-18 04:43:00,51.6,28.1,29.85,NE,40,2.0,3.0,40,0.00,,---,0.00,VWS V14.01,2013-03-18 11:43:00,
2013-03-18 04:48:00,51.4,28.5,29.85,NE,42,1.0,3.0,41,0.00,,---,0.00,VWS V14.01,2013-03-18 11:48:00,
2013-03-18 04:53:00,51.5,28.6,29.85,NE,43,0.0,3.0,41,0.00,,---,0.00,VWS V14.01,2013-03-18 11:53:00,
2013-03-18 04:58:00,51.5,28.0,29.86,NNE,24,1.0,3.0,40,0.00,,---,0.00,VWS V14.01,2013-03-18 11:58:00,
2013-03-18 05:03:00,52.0,27.8,29.85,NNE,26,0.0,3.0,39,0.00,,---,0.00,VWS V14.01,2013-03-18 12:03:00,
2013-03-18 05:08:00,52.1,27.9,29.85,NNE,25,0.0,0.0,39,0.00,,---,0.00,VWS V14.01,2013-03-18 12:08:00,
2013-03-18 05:13:00,51.9,28.4,29.85,NNE,26,1.0,1.0,40,0.00,,---,0.00,VWS V14.01,2013-03-18 12:13:00,
2013-03-18 05:18:00,51.7,28.2,29.86,NE,43,2.0,2.0,40,0.00,,---,0.00,VWS V14.01,2013-03-18 12:18:00,
2013-03-18 05:23:00,51.3,28.4,29.86,NNE,25,1.0,3.0,41,0.00,,---,0.00,VWS V14.01,2013-03-18 12:23:00,
2013-03-18 05:28:00,51.2,28.3,29.86,NE,42,1.0,3.0,41,0.00,,---,0.00,VWS V14.01,2013-03-18 12:28:00,
2013-03-18 05:33:00,51.1,28.8,29.86,NE,40,2.0,3.0,42,0.00,,---,0.00,VWS V14.01,2013-03-18 12:33:00,
2013-03-18 05:38:00,51.0,28.7,29.86,NNE,18,2.0,4.0,42,0.00,,---,0.00,VWS V14.01,2013-03-18 12:38:00,
2013-03-18 05:43:00,51.0,28.7,29.87,NE,44,2.0,4.0,42,0.00,,---,0.00,VWS V14.01,2013-03-18 12:43:00,
2013-03-18 05:48:00,51.3,28.4,29.87,NNE,20,3.0,4.0,41,0.00,,---,0.00,VWS V14.01,2013-03-18 12:48:00,
2013-03-18 05:53:00,51.6,28.7,29.87,NE,37,1.0,4.0,41,0.00,,---,0.00,VWS V14.01,2013-03-18 12:53:00,
2013-03-18 05:58:00,51.4,28.5,29.87,ENE,58,1.0,4.0,41,0.00,,---,0.00,VWS V14.01,2013-03-18 12:58:00,
2013-03-18 06:03:00,51.2,28.9,29.87,NNE,31,1.0,4.0,42,0.00,,---,0.00,VWS V14.01,2013-03-18 13:03:00,
2013-03-18 06:08:00,51.0,28.7,29.87,NNE,22,3.0,3.0,42,0.00,,---,0.00,VWS V14.01,2013-03-18 13:08:00,
2013-03-18 06:13:00,51.0,28.7,29.88,NNE,25,3.0,3.0,42,0.00,,---,0.00,VWS V14.01,2013-03-18 13:13:00,
2013-03-18 06:18:00,50.7,29.0,29.88,NNE,12,2.0,3.0,43,0.00,,---,0.00,VWS V14.01,2013-03-18 13:18:00,
2013-03-18 06:23:00,50.3,28.7,29.88,NNE,16,2.0,3.0,43,0.00,,---,0.00,VWS V14.01,2013-03-18 13:23:00,
2013-03-18 06:28:00,50.6,29.0,29.88,NNE,29,1.0,3.0,43,0.00,,---,0.00,VWS V14.01,2013-03-18 13:28:00,
2013-03-18 06:33:00,50.6,29.0,29.89,NNE,29,2.0,2.0,43,0.00,,---,0.00,VWS V14.01,2013-03-18 13:33:00,
2013-03-18 06:39:00,51.2,28.9,29.89,NNE,30,3.0,5.0,42,0.00,,---,0.00,VWS V14.01,2013-03-18 13:39:00,
2013-03-18 06:44:00,51.5,29.2,29.89,NE,35,2.0,5.0,42,0.00,,---,0.00,VWS V14.01,2013-03-18 13:44:00,
2013-03-18 06:49:00,51.4,28.5,29.89,NNE,29,2.0,5.0,41,0.00,,---,0.00,VWS V14.01,2013-03-18 13:49:00,
2013-03-18 06:54:00,51.4,29.1,29.89,NNE,32,1.0,5.0,42,0.00,,---,0.00,VWS V14.01,2013-03-18 13:54:00,
2013-03-18 06:59:00,51.3,29.0,29.89,NNE,32,2.0,5.0,42,0.00,,---,0.00,VWS V14.01,2013-03-18 13:59:00,
2013-03-18 07:04:00,52.1,29.1,29.90,NNE,24,2.0,2.0,41,0.00,,---,0.00,VWS V14.01,2013-03-18 14:04:00,
2013-03-18 07:09:00,52.8,29.2,29.90,NNE,30,2.0,2.0,40,0.00,,---,0.00,VWS V14.01,2013-03-18 14:09:00,
2013-03-18 07:14:00,52.9,29.2,29.90,NE,42,3.0,3.0,40,0.00,,---,0.00,VWS V14.01,2013-03-18 14:14:00,
2013-03-18 07:19:00,52.3,29.9,29.90,NNE,30,2.0,3.0,42,0.00,,---,0.00,VWS V14.01,2013-03-18 14:19:00,
2013-03-18 07:24:00,52.0,29.6,29.91,NE,40,2.0,5.0,42,0.00,,---,0.00,VWS V14.01,2013-03-18 14:24:00,
2013-03-18 07:29:00,52.5,30.1,29.91,NNE,19,1.0,5.0,42,0.00,,---,0.00,VWS V14.01,2013-03-18 14:29:00,
2013-03-18 07:34:00,53.3,30.8,29.91,NNE,23,0.0,3.0,42,0.00,,---,0.00,VWS V14.01,2013-03-18 14:34:00,
2013-03-18 07:39:00,54.2,31.0,29.91,NNE,22,1.0,3.0,41,0.00,,---,0.00,VWS V14.01,2013-03-18 14:39:00,
2013-03-18 07:45:00,55.0,31.1,29.91,NE,53,2.0,3.0,40,0.00,,---,0.00,VWS V14.01,2013-03-18 14:45:00,
2013-03-18 07:50:00,54.8,31.6,29.92,NE,49,1.0,3.0,41,0.00,,---,0.00,VWS V14.01,2013-03-18 14:50:00,
2013-03-18 07:55:00,54.5,31.3,29.92,NE,50,1.0,3.0,41,0.00,,---,0.00,VWS V14.01,2013-03-18 14:55:00,
2013-03-18 08:00:00,54.3,31.7,29.91,NE,49,2.0,3.0,42,0.00,,---,0.00,VWS V14.01,2013-03-18 15:00:00,
2013-03-18 08:05:00,54.1,32.1,29.92,NE,50,1.0,1.0,43,0.00,,---,0.00,VWS V14.01,2013-03-18 15:05:00,
2013-03-18 08:10:00,53.9,32.5,29.92,NE,42,3.0,3.0,44,0.00,,---,0.00,VWS V14.01,2013-03-18 15:10:00,
2013-03-18 08:15:00,54.4,33.0,29.92,NE,43,2.0,3.0,44,0.00,,---,0.00,VWS V14.01,2013-03-18 15:15:00,
2013-03-18 08:20:00,55.7,33.6,29.92,NE,41,1.0,3.0,43,0.00,,---,0.00,VWS V14.01,2013-03-18 15:20:00,
2013-03-18 08:25:00,56.7,33.9,29.92,NE,43,0.0,3.0,42,0.00,,---,0.00,VWS V14.01,2013-03-18 15:25:00,
2013-03-18 08:30:00,57.2,33.7,29.92,NE,42,0.0,3.0,41,0.00,,---,0.00,VWS V14.01,2013-03-18 15:30:00,
2013-03-18 08:35:00,57.9,33.8,29.92,NE,41,1.0,2.0,40,0.00,,---,0.00,VWS V14.01,2013-03-18 15:35:00,
2013-03-18 08:40:00,59.3,33.7,29.93,NE,41,0.0,2.0,38,0.00,,---,0.00,VWS V14.01,2013-03-18 15:40:00,
2013-03-18 08:45:00,61.0,33.2,29.93,NE,41,0.0,2.0,35,0.00,,---,0.00,VWS V14.01,2013-03-18 15:45:00,
2013-03-18 08:50:00,62.5,32.3,29.93,NE,41,0.0,2.0,32,0.00,,---,0.00,VWS V14.01,2013-03-18 15:50:00,
2013-03-18 08:56:00,64.3,31.4,29.93,NE,41,0.0,2.0,29,0.00,,---,0.00,VWS V14.01,2013-03-18 15:56:00,
2013-03-18 09:01:00,65.1,31.2,29.93,NE,41,0.0,2.0,28,0.00,,---,0.00,VWS V14.01,2013-03-18 16:01:00,
2013-03-18 09:06:00,66.5,31.5,29.92,East,91,0.0,1.0,27,0.00,,---,0.00,VWS V14.01,2013-03-18 16:06:00,
2013-03-18 09:11:00,67.9,30.8,29.92,East,93,0.0,1.0,25,0.00,,---,0.00,VWS V14.01,2013-03-18 16:11:00,
2013-03-18 09:16:00,68.2,30.1,29.93,East,94,0.0,1.0,24,0.00,,---,0.00,VWS V14.01,2013-03-18 16:16:00,
2013-03-18 09:21:00,68.8,29.5,29.93,SW,217,0.0,1.0,23,0.00,,---,0.00,VWS V14.01,2013-03-18 16:21:00,
2013-03-18 09:27:00,69.2,28.8,29.93,SSE,150,0.0,1.0,22,0.00,,---,0.00,VWS V14.01,2013-03-18 16:27:00,
2013-03-18 09:32:00,69.4,26.6,29.93,WSW,249,0.0,2.0,20,0.00,,---,0.00,VWS V14.01,2013-03-18 16:32:00,
2013-03-18 09:37:00,69.9,29.4,29.93,WSW,246,1.0,1.0,22,0.00,,---,0.00,VWS V14.01,2013-03-18 16:37:00,
2013-03-18 09:42:00,71.0,29.1,29.93,SW,229,0.0,1.0,21,0.00,,---,0.00,VWS V14.01,2013-03-18 16:42:00,
2013-03-18 09:47:00,72.4,31.4,29.93,SSE,148,0.0,1.0,22,0.00,,---,0.00,VWS V14.01,2013-03-18 16:47:00,
2013-03-18 09:52:00,72.5,30.4,29.93,South,181,0.0,3.0,21,0.00,,---,0.00,VWS V14.01,2013-03-18 16:52:00,
2013-03-18 09:57:00,72.0,30.0,29.93,SW,223,4.0,4.0,21,0.00,,---,0.00,VWS V14.01,2013-03-18 16:57:00,
2013-03-18 10:02:00,72.1,30.0,29.93,WSW,253,0.0,4.0,21,0.00,,---,0.00,VWS V14.01,2013-03-18 17:02:00,
2013-03-18 10:07:00,72.3,31.4,29.93,WSW,256,1.0,4.0,22,0.00,,---,0.00,VWS V14.01,2013-03-18 17:07:00,
2013-03-18 10:13:00,72.7,30.5,29.93,WSW,245,0.0,4.0,21,0.00,,---,0.00,VWS V14.01,2013-03-18 17:13:00,
2013-03-18 10:18:00,73.3,29.8,29.93,ESE,107,2.0,4.0,20,0.00,,---,0.00,VWS V14.01,2013-03-18 17:18:00,
2013-03-18 10:23:00,73.1,28.4,29.93,WSW,245,1.0,5.0,19,0.00,,---,0.00,VWS V14.01,2013-03-18 17:23:00,
2013-03-18 10:28:00,73.3,25.9,29.93,East,79,0.0,5.0,17,0.00,,---,0.00,VWS V14.01,2013-03-18 17:28:00,
2013-03-18 10:33:00,74.0,27.9,29.93,West,281,2.0,5.0,18,0.00,,---,0.00,VWS V14.01,2013-03-18 17:33:00,
2013-03-18 10:38:00,74.1,27.9,29.93,SSW,211,2.0,5.0,18,0.00,,---,0.00,VWS V14.01,2013-03-18 17:38:00,
2013-03-18 10:43:00,74.8,28.5,29.93,NW,316,2.0,5.0,18,0.00,,---,0.00,VWS V14.01,2013-03-18 17:43:00,
2013-03-18 10:48:00,75.1,27.4,29.93,NNE,23,0.0,5.0,17,0.00,,---,0.00,VWS V14.01,2013-03-18 17:48:00,
2013-03-18 10:53:00,76.0,28.1,29.93,NE,56,2.0,5.0,17,0.00,,---,0.00,VWS V14.01,2013-03-18 17:53:00,
2013-03-18 10:59:00,76.4,26.9,29.93,North,356,0.0,5.0,16,0.00,,---,0.00,VWS V14.01,2013-03-18 17:59:00,
2013-03-18 11:04:00,75.9,26.5,29.93,WSW,254,0.0,0.0,16,0.00,,---,0.00,VWS V14.01,2013-03-18 18:04:00,
2013-03-18 11:09:00,76.1,26.7,29.93,SE,125,2.0,5.0,16,0.00,,---,0.00,VWS V14.01,2013-03-18 18:09:00,
2013-03-18 11:14:00,76.6,28.6,29.93,WSW,241,1.0,5.0,17,0.00,,---,0.00,VWS V14.01,2013-03-18 18:14:00,
2013-03-18 11:19:00,76.4,28.4,29.92,SSW,205,0.0,5.0,17,0.00,,---,0.00,VWS V14.01,2013-03-18 18:19:00,
2013-03-18 11:24:00,76.4,26.9,29.92,SE,138,2.0,8.0,16,0.00,,---,0.00,VWS V14.01,2013-03-18 18:24:00,
2013-03-18 11:29:00,76.4,26.9,29.92,West,273,2.0,8.0,16,0.00,,---,0.00,VWS V14.01,2013-03-18 18:29:00,
2013-03-18 11:34:00,76.2,26.8,29.92,South,181,4.0,4.0,16,0.00,,---,0.00,VWS V14.01,2013-03-18 18:34:00,
2013-03-18 11:39:00,76.8,27.2,29.92,WSW,253,2.0,5.0,16,0.00,,---,0.00,VWS V14.01,2013-03-18 18:39:00,
2013-03-18 11:44:00,76.6,27.1,29.92,SSW,205,3.0,8.0,16,0.00,,---,0.00,VWS V14.01,2013-03-18 18:44:00,
2013-03-18 11:49:00,76.2,25.2,29.92,WSW,240,2.0,9.0,15,0.00,,---,0.00,VWS V14.01,2013-03-18 18:49:00,
2013-03-18 11:54:00,75.9,25.0,29.92,West,266,2.0,9.0,15,0.00,,---,0.00,VWS V14.01,2013-03-18 18:54:00,
2013-03-18 11:59:00,76.2,25.2,29.91,NNW,334,1.0,9.0,15,0.00,,---,0.00,VWS V14.01,2013-03-18 18:59:00,
2013-03-18 12:04:00,77.6,24.7,29.91,SW,228,2.0,4.0,14,0.00,,---,0.00,VWS V14.01,2013-03-18 19:04:00,
2013-03-18 12:10:00,77.7,23.0,29.91,ESE,105,0.0,6.0,13,0.00,,---,0.00,VWS V14.01,2013-03-18 19:10:00,
2013-03-18 12:15:00,78.0,23.2,29.91,WSW,240,3.0,6.0,13,0.00,,---,0.00,VWS V14.01,2013-03-18 19:15:00,
2013-03-18 12:20:00,77.8,21.2,29.91,West,262,0.0,6.0,12,0.00,,---,0.00,VWS V14.01,2013-03-18 19:20:00,
2013-03-18 12:25:00,77.5,20.9,29.90,SW,231,2.0,6.0,12,0.00,,---,0.00,VWS V14.01,2013-03-18 19:25:00,
2013-03-18 12:30:00,77.2,20.7,29.90,NE,53,1.0,6.0,12,0.00,,---,0.00,VWS V14.01,2013-03-18 19:30:00,
2013-03-18 12:35:00,78.1,21.4,29.90,WSW,252,7.0,7.0,12,0.00,,---,0.00,VWS V14.01,2013-03-18 19:35:00,
2013-03-18 12:40:00,77.7,19.0,29.90,SW,228,3.0,8.0,11,0.00,,---,0.00,VWS V14.01,2013-03-18 19:40:00,
2013-03-18 12:45:00,77.7,21.1,29.90,WSW,240,3.0,10.0,12,0.00,,---,0.00,VWS V14.01,2013-03-18 19:45:00,
2013-03-18 12:50:00,78.3,19.5,29.90,WSW,241,0.0,10.0,11,0.00,,---,0.00,VWS V14.01,2013-03-18 19:50:00,
2013-03-18 12:55:00,79.0,20.0,29.89,SW,226,4.0,10.0,11,0.00,,---,0.00,VWS V14.01,2013-03-18 19:55:00,
2013-03-18 13:01:00,79.0,17.8,29.89,SSW,207,3.0,10.0,10,0.00,,---,0.00,VWS V14.01,2013-03-18 20:01:00,
2013-03-18 13:06:00,78.8,15.2,29.89,WSW,248,1.0,5.0,9,0.00,,---,0.00,VWS V14.01,2013-03-18 20:06:00,
2013-03-18 13:11:00,79.2,15.6,29.89,ESE,109,2.0,7.0,9,0.00,,---,0.00,VWS V14.01,2013-03-18 20:11:00,
2013-03-18 13:16:00,79.1,17.9,29.89,SSW,213,4.0,8.0,10,0.00,,---,0.00,VWS V14.01,2013-03-18 20:16:00,
2013-03-18 13:21:00,78.8,17.7,29.89,SE,124,2.0,8.0,10,0.00,,---,0.00,VWS V14.01,2013-03-18 20:21:00,
2013-03-18 13:26:00,78.7,15.2,29.89,West,262,2.0,8.0,9,0.00,,---,0.00,VWS V14.01,2013-03-18 20:26:00,
2013-03-18 13:31:00,78.6,17.5,29.88,West,277,5.0,8.0,10,0.00,,---,0.00,VWS V14.01,2013-03-18 20:31:00,
2013-03-18 13:37:00,78.6,15.1,29.88,West,266,2.0,12.0,9,0.00,,---,0.00,VWS V14.01,2013-03-18 20:37:00,
2013-03-18 13:42:00,78.8,17.7,29.88,SSW,205,0.0,12.0,10,0.00,,---,0.00,VWS V14.01,2013-03-18 20:42:00,
2013-03-18 13:47:00,79.3,18.1,29.87,South,176,3.0,12.0,10,0.00,,---,0.00,VWS V14.01,2013-03-18 20:47:00,
2013-03-18 13:52:00,78.9,17.8,29.87,WSW,256,5.0,12.0,10,0.00,,---,0.00,VWS V14.01,2013-03-18 20:52:00,
2013-03-18 13:57:00,78.6,19.8,29.87,WSW,240,3.0,12.0,11,0.00,,---,0.00,VWS V14.01,2013-03-18 20:57:00,
2013-03-18 14:02:00,79.1,17.9,29.86,SW,221,9.0,12.0,10,0.00,,---,0.00,VWS V14.01,2013-03-18 21:02:00,
2013-03-18 14:07:00,78.8,17.7,29.86,WSW,248,3.0,10.0,10,0.00,,---,0.00,VWS V14.01,2013-03-18 21:07:00,
2013-03-18 14:12:00,78.9,20.0,29.86,WSW,246,9.0,11.0,11,0.00,,---,0.00,VWS V14.01,2013-03-18 21:12:00,
2013-03-18 14:17:00,78.5,17.5,29.86,WSW,257,1.0,11.0,10,0.00,,---,0.00,VWS V14.01,2013-03-18 21:17:00,
2013-03-18 14:22:00,78.7,19.8,29.86,SW,222,8.0,11.0,11,0.00,,---,0.00,VWS V14.01,2013-03-18 21:22:00,
2013-03-18 14:27:00,79.6,18.3,29.86,SW,236,4.0,11.0,10,0.00,,---,0.00,VWS V14.01,2013-03-18 21:27:00,
2013-03-18 14:32:00,79.4,20.4,29.86,WSW,239,5.0,11.0,11,0.00,,---,0.00,VWS V14.01,2013-03-18 21:32:00,
2013-03-18 14:38:00,78.9,20.0,29.86,WSW,257,3.0,11.0,11,0.00,,---,0.00,VWS V14.01,2013-03-18 21:38:00,
2013-03-18 14:43:00,79.0,22.1,29.85,SW,220,4.0,11.0,12,0.00,,---,0.00,VWS V14.01,2013-03-18 21:43:00,
2013-03-18 14:48:00,79.0,20.0,29.85,WSW,257,6.0,13.0,11,0.00,,---,0.00,VWS V14.01,2013-03-18 21:48:00,
2013-03-18 14:53:00,79.8,22.7,29.85,WSW,252,3.0,13.0,12,0.00,,---,0.00,VWS V14.01,2013-03-18 21:53:00,
2013-03-18 14:58:00,79.6,22.6,29.84,SW,230,4.0,13.0,12,0.00,,---,0.00,VWS V14.01,2013-03-18 21:58:00,
2013-03-18 15:03:00,79.4,20.4,29.84,SW,233,8.0,13.0,11,0.00,,---,0.00,VWS V14.01,2013-03-18 22:03:00,
2013-03-18 15:08:00,79.2,20.2,29.84,West,279,0.0,11.0,11,0.00,,---,0.00,VWS V14.01,2013-03-18 22:08:00,
2013-03-18 15:13:00,79.0,22.1,29.84,West,267,8.0,12.0,12,0.00,,---,0.00,VWS V14.01,2013-03-18 22:13:00,
2013-03-18 15:18:00,78.9,20.0,29.84,SW,225,8.0,12.0,11,0.00,,---,0.00,VWS V14.01,2013-03-18 22:18:00,
2013-03-18 15:23:00,78.8,19.9,29.84,WSW,250,9.0,12.0,11,0.00,,---,0.00,VWS V14.01,2013-03-18 22:23:00,
2013-03-18 15:28:00,78.8,19.9,29.84,WSW,255,4.0,13.0,11,0.00,,---,0.00,VWS V14.01,2013-03-18 22:28:00,
2013-03-18 15:33:00,79.1,20.1,29.84,WSW,257,7.0,13.0,11,0.00,,---,0.00,VWS V14.01,2013-03-18 22:33:00,
2013-03-18 15:38:00,79.0,20.0,29.84,WSW,242,4.0,11.0,11,0.00,,---,0.00,VWS V14.01,2013-03-18 22:38:00,
2013-03-18 15:43:00,79.0,20.0,29.84,West,260,1.0,11.0,11,0.00,,---,0.00,VWS V14.01,2013-03-18 22:43:00,
2013-03-18 15:48:00,79.0,22.1,29.84,WSW,239,1.0,11.0,12,0.00,,---,0.00,VWS V14.01,2013-03-18 22:48:00,
2013-03-18 15:53:00,79.4,22.4,29.84,West,259,1.0,11.0,12,0.00,,---,0.00,VWS V14.01,2013-03-18 22:53:00,
2013-03-18 15:58:00,79.1,20.1,29.84,West,260,0.0,11.0,11,0.00,,---,0.00,VWS V14.01,2013-03-18 22:58:00,
2013-03-18 16:04:00,79.8,20.7,29.84,North,358,0.0,0.0,11,0.00,,---,0.00,VWS V14.01,2013-03-18 23:04:00,
2013-03-18 16:09:00,80.0,20.8,29.84,WNW,296,0.0,6.0,11,0.00,,---,0.00,VWS V14.01,2013-03-18 23:09:00,
2013-03-18 16:14:00,80.8,21.4,29.84,SSW,207,0.0,6.0,11,0.00,,---,0.00,VWS V14.01,2013-03-18 23:14:00,
2013-03-18 16:19:00,80.7,21.4,29.84,NW,319,1.0,11.0,11,0.00,,---,0.00,VWS V14.01,2013-03-18 23:19:00,
2013-03-18 16:24:00,80.4,21.1,29.84,WSW,249,4.0,11.0,11,0.00,,---,0.00,VWS V14.01,2013-03-18 23:24:00,
2013-03-18 16:29:00,80.1,20.9,29.84,SW,228,4.0,11.0,11,0.00,,---,0.00,VWS V14.01,2013-03-18 23:29:00,
2013-03-18 16:34:00,79.8,20.7,29.84,WSW,256,3.0,3.0,11,0.00,,---,0.00,VWS V14.01,2013-03-18 23:34:00,
2013-03-18 16:39:00,80.3,21.1,29.84,WSW,253,6.0,7.0,11,0.00,,---,0.00,VWS V14.01,2013-03-18 23:39:00,
2013-03-18 16:44:00,79.8,20.7,29.84,WSW,252,4.0,9.0,11,0.00,,---,0.00,VWS V14.01,2013-03-18 23:44:00,
2013-03-18 16:49:00,79.1,22.2,29.84,West,271,6.0,9.0,12,0.00,,---,0.00,VWS V14.01,2013-03-18 23:49:00,
2013-03-18 16:54:00,79.0,22.1,29.84,WSW,239,3.0,11.0,12,0.00,,---,0.00,VWS V14.01,2013-03-18 23:54:00,
2013-03-18 16:59:00,78.8,19.9,29.84,West,273,4.0,11.0,11,0.00,,---,0.00,VWS V14.01,2013-03-18 23:59:00,
2013-03-18 17:04:00,78.6,21.8,29.84,West,281,5.0,6.0,12,0.00,,---,0.00,VWS V14.01,2013-03-19 00:04:00,
2013-03-18 17:09:00,78.6,21.8,29.84,SE,146,1.0,6.0,12,0.00,,---,0.00,VWS V14.01,2013-03-19 00:09:00,
2013-03-18 17:14:00,79.1,22.2,29.83,NNE,16,0.0,6.0,12,0.00,,---,0.00,VWS V14.01,2013-03-19 00:14:00,
2013-03-18 17:19:00,79.0,22.1,29.83,WSW,253,1.0,6.0,12,0.00,,---,0.00,VWS V14.01,2013-03-19 00:19:00,
2013-03-18 17:24:00,78.7,21.9,29.84,WNW,297,4.0,6.0,12,0.00,,---,0.00,VWS V14.01,2013-03-19 00:24:00,
2013-03-18 17:29:00,78.5,21.7,29.84,West,276,1.0,9.0,12,0.00,,---,0.00,VWS V14.01,2013-03-19 00:29:00,
2013-03-18 17:34:00,78.4,21.6,29.84,West,269,4.0,4.0,12,0.00,,---,0.00,VWS V14.01,2013-03-19 00:34:00,
2013-03-18 17:39:00,78.1,21.4,29.84,WNW,295,1.0,5.0,12,0.00,,---,0.00,VWS V14.01,2013-03-19 00:39:00,
2013-03-18 17:44:00,78.0,23.2,29.84,NW,317,2.0,7.0,13,0.00,,---,0.00,VWS V14.01,2013-03-19 00:44:00,
2013-03-18 17:49:00,77.6,22.9,29.84,West,277,0.0,7.0,13,0.00,,---,0.00,VWS V14.01,2013-03-19 00:49:00,
2013-03-18 17:55:00,77.3,22.7,29.84,NNE,24,1.0,7.0,13,0.00,,---,0.00,VWS V14.01,2013-03-19 00:55:00,
2013-03-18 18:00:00,76.9,22.4,29.85,WNW,283,4.0,7.0,13,0.00,,---,0.00,VWS V14.01,2013-03-19 01:00:00,
2013-03-18 18:05:00,76.5,22.0,29.85,NW,317,3.0,5.0,13,0.00,,---,0.00,VWS V14.01,2013-03-19 01:05:00,
2013-03-18 18:10:00,76.1,23.5,29.85,NW,308,2.0,5.0,14,0.00,,---,0.00,VWS V14.01,2013-03-19 01:10:00,
2013-03-18 18:15:00,75.6,23.1,29.85,NNE,23,1.0,5.0,14,0.00,,---,0.00,VWS V14.01,2013-03-19 01:15:00,
2013-03-18 18:20:00,75.0,22.6,29.85,NW,316,3.0,5.0,14,0.00,,---,0.00,VWS V14.01,2013-03-19 01:20:00,
2013-03-18 18:25:00,74.5,23.9,29.85,NNW,345,1.0,5.0,15,0.00,,---,0.00,VWS V14.01,2013-03-19 01:25:00,
2013-03-18 18:30:00,74.0,23.5,29.85,NE,44,1.0,5.0,15,0.00,,---,0.00,VWS V14.01,2013-03-19 01:30:00,
2013-03-18 18:35:00,73.5,23.1,29.85,NNE,20,1.0,2.0,15,0.00,,---,0.00,VWS V14.01,2013-03-19 01:35:00,
2013-03-18 18:40:00,73.2,24.4,29.85,NNW,345,0.0,2.0,16,0.00,,---,0.00,VWS V14.01,2013-03-19 01:40:00,
2013-03-18 18:45:00,72.7,24.0,29.85,North,349,0.0,2.0,16,0.00,,---,0.00,VWS V14.01,2013-03-19 01:45:00,
2013-03-18 18:50:00,72.2,23.5,29.85,North,352,0.0,2.0,16,0.00,,---,0.00,VWS V14.01,2013-03-19 01:50:00,
2013-03-18 18:55:00,71.9,24.8,29.85,NNE,13,1.0,2.0,17,0.00,,---,0.00,VWS V14.01,2013-03-19 01:55:00,
2013-03-18 19:00:00,71.6,24.5,29.85,NNE,13,0.0,2.0,17,0.00,,---,0.00,VWS V14.01,2013-03-19 02:00:00,
2013-03-18 19:06:00,71.2,24.2,29.85,North,9,0.0,1.0,17,0.00,,---,0.00,VWS V14.01,2013-03-19 02:06:00,
2013-03-18 19:11:00,70.9,24.0,29.85,North,9,0.0,1.0,17,0.00,,---,0.00,VWS V14.01,2013-03-19 02:11:00,
2013-03-18 19:16:00,70.4,24.9,29.85,North,9,0.0,1.0,18,0.00,,---,0.00,VWS V14.01,2013-03-19 02:16:00,
2013-03-18 19:21:00,70.2,24.7,29.85,North,11,2.0,2.0,18,0.00,,---,0.00,VWS V14.01,2013-03-19 02:21:00,
2013-03-18 19:26:00,70.1,26.0,29.85,NE,35,1.0,2.0,19,0.00,,---,0.00,VWS V14.01,2013-03-19 02:26:00,
2013-03-18 19:31:00,69.7,25.6,29.86,NE,51,3.0,4.0,19,0.00,,---,0.00,VWS V14.01,2013-03-19 02:31:00,
2013-03-18 19:36:00,68.6,26.0,29.86,East,85,2.0,3.0,20,0.00,,---,0.00,VWS V14.01,2013-03-19 02:36:00,
2013-03-18 19:41:00,68.0,26.6,29.86,ENE,63,3.0,4.0,21,0.00,,---,0.00,VWS V14.01,2013-03-19 02:41:00,
2013-03-18 19:46:00,67.6,26.3,29.86,ENE,61,4.0,6.0,21,0.00,,---,0.00,VWS V14.01,2013-03-19 02:46:00,
2013-03-18 19:51:00,67.0,26.9,29.87,NE,37,5.0,6.0,22,0.00,,---,0.00,VWS V14.01,2013-03-19 02:51:00,
2013-03-18 19:57:00,66.3,27.4,29.87,NE,35,4.0,7.0,23,0.00,,---,0.00,VWS V14.01,2013-03-19 02:57:00,
2013-03-18 20:02:00,66.3,26.4,29.87,North,358,5.0,7.0,22,0.00,,---,0.00,VWS V14.01,2013-03-19 03:02:00,
2013-03-18 20:07:00,66.9,25.7,29.87,NE,35,5.0,7.0,21,0.00,,---,0.00,VWS V14.01,2013-03-19 03:07:00,
2013-03-18 20:12:00,67.4,25.0,29.87,North,353,2.0,8.0,20,0.00,,---,0.00,VWS V14.01,2013-03-19 03:12:00,
2013-03-18 20:17:00,67.5,25.0,29.87,North,7,3.0,8.0,20,0.00,,---,0.00,VWS V14.01,2013-03-19 03:17:00,
2013-03-18 20:22:00,67.2,26.0,29.87,North,5,3.0,8.0,21,0.00,,---,0.00,VWS V14.01,2013-03-19 03:22:00,
2013-03-18 20:27:00,66.8,25.6,29.87,NNW,340,1.0,8.0,21,0.00,,---,0.00,VWS V14.01,2013-03-19 03:27:00,
2013-03-18 20:32:00,66.5,25.4,29.87,North,9,4.0,8.0,21,0.00,,---,0.00,VWS V14.01,2013-03-19 03:32:00,
2013-03-18 20:37:00,66.3,26.4,29.87,NNE,24,4.0,6.0,22,0.00,,---,0.00,VWS V14.01,2013-03-19 03:37:00,
2013-03-18 20:42:00,66.0,26.1,29.87,NNE,29,4.0,6.0,22,0.00,,---,0.00,VWS V14.01,2013-03-19 03:42:00,
2013-03-18 20:47:00,65.7,25.8,29.88,NNE,22,3.0,6.0,22,0.00,,---,0.00,VWS V14.01,2013-03-19 03:47:00,
2013-03-18 20:52:00,65.4,26.7,29.88,NNE,27,4.0,6.0,23,0.00,,---,0.00,VWS V14.01,2013-03-19 03:52:00,
2013-03-18 20:57:00,64.9,26.2,29.88,North,355,2.0,6.0,23,0.00,,---,0.00,VWS V14.01,2013-03-19 03:57:00,
2013-03-18 21:00:00,65.0,26.3,29.88,NE,40,3.0,6.0,23,0.00,,---,0.00,VWS V14.01,2013-03-19 04:00:00,
2013-03-18 21:01:00,65.0,26.3,29.88,NNE,18,2.0,6.0,23,0.00,,---,0.00,VWS V14.01,2013-03-19 04:01:00,
2013-03-18 21:06:00,64.7,26.1,29.88,NE,34,2.0,3.0,23,0.00,,---,0.00,VWS V14.01,2013-03-19 04:06:00,
2013-03-18 21:11:00,64.4,25.8,29.88,NNE,13,4.0,4.0,23,0.00,,---,0.00,VWS V14.01,2013-03-19 04:11:00,
2013-03-18 21:16:00,64.2,25.7,29.88,NNE,12,3.0,6.0,23,0.00,,---,0.00,VWS V14.01,2013-03-19 04:16:00,
2013-03-18 21:21:00,64.1,25.6,29.88,NNE,12,2.0,6.0,23,0.00,,---,0.00,VWS V14.01,2013-03-19 04:21:00,
2013-03-18 21:27:00,64.0,25.5,29.88,NNE,30,4.0,6.0,23,0.00,,---,0.00,VWS V14.01,2013-03-19 04:27:00,
2013-03-18 21:32:00,64.1,25.6,29.89,NNE,20,2.0,6.0,23,0.00,,---,0.00,VWS V14.01,2013-03-19 04:32:00,
2013-03-18 21:37:00,64.2,25.7,29.89,NNE,18,2.0,3.0,23,0.00,,---,0.00,VWS V14.01,2013-03-19 04:37:00,
2013-03-18 21:42:00,64.0,25.5,29.89,NNE,18,2.0,5.0,23,0.00,,---,0.00,VWS V14.01,2013-03-19 04:42:00,
2013-03-18 21:47:00,63.5,26.1,29.89,NNE,16,1.0,5.0,24,0.00,,---,0.00,VWS V14.01,2013-03-19 04:47:00,
2013-03-18 21:52:00,63.1,26.7,29.89,NNE,27,3.0,5.0,25,0.00,,---,0.00,VWS V14.01,2013-03-19 04:52:00,
2013-03-18 21:57:00,62.1,26.8,29.89,NE,51,2.0,5.0,26,0.00,,---,0.00,VWS V14.01,2013-03-19 04:57:00,
2013-03-18 22:02:00,61.6,26.4,29.89,NE,36,3.0,5.0,26,0.00,,---,0.00,VWS V14.01,2013-03-19 05:02:00,
2013-03-18 22:07:00,61.2,27.0,29.89,NE,42,2.0,5.0,27,0.00,,---,0.00,VWS V14.01,2013-03-19 05:07:00,
2013-03-18 22:12:00,60.9,26.7,29.89,NE,41,3.0,5.0,27,0.00,,---,0.00,VWS V14.01,2013-03-19 05:12:00,
2013-03-18 22:17:00,60.8,26.6,29.89,NE,49,3.0,5.0,27,0.00,,---,0.00,VWS V14.01,2013-03-19 05:17:00,
2013-03-18 22:22:00,60.8,26.6,29.89,NE,46,3.0,5.0,27,0.00,,---,0.00,VWS V14.01,2013-03-19 05:22:00,
2013-03-18 22:27:00,60.5,27.3,29.90,NE,40,2.0,5.0,28,0.00,,---,0.00,VWS V14.01,2013-03-19 05:27:00,
2013-03-18 22:32:00,60.2,27.0,29.90,NW,316,0.0,5.0,28,0.00,,---,0.00,VWS V14.01,2013-03-19 05:32:00,
2013-03-18 22:38:00,59.8,27.5,29.90,NE,35,2.0,2.0,29,0.00,,---,0.00,VWS V14.01,2013-03-19 05:38:00,
2013-03-18 22:43:00,59.9,27.6,29.90,WSW,253,1.0,2.0,29,0.00,,---,0.00,VWS V14.01,2013-03-19 05:43:00,
2013-03-18 22:48:00,59.0,27.6,29.90,SSW,208,0.0,2.0,30,0.00,,---,0.00,VWS V14.01,2013-03-19 05:48:00,
2013-03-18 22:53:00,58.4,27.9,29.90,SSW,208,0.0,2.0,31,0.00,,---,0.00,VWS V14.01,2013-03-19 05:53:00,
2013-03-18 22:58:00,57.9,28.2,29.90,NE,51,2.0,3.0,32,0.00,,---,0.00,VWS V14.01,2013-03-19 05:58:00,
2013-03-18 23:03:00,57.4,28.5,29.90,NE,44,3.0,4.0,33,0.00,,---,0.00,VWS V14.01,2013-03-19 06:03:00,
2013-03-18 23:08:00,57.0,28.2,29.90,NE,53,0.0,3.0,33,0.00,,---,0.00,VWS V14.01,2013-03-19 06:08:00,
2013-03-18 23:13:00,56.8,28.0,29.90,NE,50,1.0,3.0,33,0.00,,---,0.00,VWS V14.01,2013-03-19 06:13:00,
2013-03-18 23:18:00,56.9,28.8,29.90,NE,50,1.0,3.0,34,0.00,,---,0.00,VWS V14.01,2013-03-19 06:18:00,
2013-03-18 23:23:00,57.0,28.2,29.90,NE,50,2.0,3.0,33,0.00,,---,0.00,VWS V14.01,2013-03-19 06:23:00,
2013-03-18 23:28:00,57.0,28.9,29.90,ENE,60,1.0,3.0,34,0.00,,---,0.00,VWS V14.01,2013-03-19 06:28:00,
2013-03-18 23:33:00,56.7,28.7,29.90,ENE,60,2.0,2.0,34,0.00,,---,0.00,VWS V14.01,2013-03-19 06:33:00,
2013-03-18 23:39:00,56.8,28.8,29.90,NE,56,1.0,3.0,34,0.00,,---,0.00,VWS V14.01,2013-03-19 06:39:00,
2013-03-18 23:44:00,56.7,28.7,29.89,NE,43,4.0,4.0,34,0.00,,---,0.00,VWS V14.01,2013-03-19 06:44:00,
2013-03-18 23:49:00,56.3,28.3,29.89,NE,46,3.0,4.0,34,0.00,,---,0.00,VWS V14.01,2013-03-19 06:49:00,
2013-03-18 23:54:00,56.1,28.8,29.89,NE,47,2.0,4.0,35,0.00,,---,0.00,VWS V14.01,2013-03-19 06:54:00,
2013-03-18 23:59:00,55.7,29.2,29.90,NE,47,2.0,4.0,36,0.00,,---,0.00,VWS V14.01,2013-03-19 06:59:00,